Year,Month,Day,Hour,Minute,Value (Times are PST for temperature in C)
2010,10,15,00,00,8.50
2010,10,15,00,01,8.50
2010,10,15,00,02,8.50
2010,10,15,00,03,8.50
2010,10,15,00,04,8.50
2010,10,15,00,05,8.50
2010,10,15,00,06,8.50
2010,10,15,00,07,8.50
2010,10,15,00,08,8.50
2010,10,15,00,09,8.50
2010,10,15,00,10,8.50
2010,10,15,00,11,8.50
2010,10,15,00,12,8.50
2010,10,15,00,13,8.50
2010,10,15,00,14,8.50
2010,10,15,00,15,8.50
2010,10,15,00,16,8.50
2010,10,15,00,17,8.60
2010,10,15,00,18,8.60
2010,10,15,00,19,8.60
2010,10,15,00,20,8.60
2010,10,15,00,21,8.60
2010,10,15,00,22,8.60
2010,10,15,00,23,8.50
2010,10,15,00,24,8.50
2010,10,15,00,25,8.50
2010,10,15,00,26,8.50
2010,10,15,00,27,8.40
2010,10,15,00,28,8.40
2010,10,15,00,29,8.40
2010,10,15,00,30,8.40
2010,10,15,00,31,8.30
2010,10,15,00,32,8.30
2010,10,15,00,33,8.30
2010,10,15,00,34,8.30
2010,10,15,00,35,8.20
2010,10,15,00,36,8.20
2010,10,15,00,37,8.20
2010,10,15,00,38,8.10
2010,10,15,00,39,8.10
2010,10,15,00,40,8.10
2010,10,15,00,41,8.10
2010,10,15,00,42,8.00
2010,10,15,00,43,8.00
2010,10,15,00,44,7.90
2010,10,15,00,45,7.90
2010,10,15,00,46,7.80
2010,10,15,00,47,7.80
2010,10,15,00,48,7.70
2010,10,15,00,49,7.70
2010,10,15,00,50,7.70
2010,10,15,00,51,7.60
2010,10,15,00,52,7.60
2010,10,15,00,53,7.60
2010,10,15,00,54,7.50
2010,10,15,00,55,7.40
2010,10,15,00,56,7.40
2010,10,15,00,57,7.40
2010,10,15,00,58,7.30
2010,10,15,00,59,7.30
2010,10,15,01,00,7.30
2010,10,15,01,01,7.20
2010,10,15,01,02,7.20
2010,10,15,01,03,7.20
2010,10,15,01,04,7.10
2010,10,15,01,05,7.10
2010,10,15,01,06,7.10
2010,10,15,01,07,7.00
2010,10,15,01,08,7.00
2010,10,15,01,09,7.00
2010,10,15,01,10,6.90
2010,10,15,01,11,6.90
2010,10,15,01,12,6.90
2010,10,15,01,13,6.80
2010,10,15,01,14,6.80
2010,10,15,01,15,6.80
2010,10,15,01,16,6.80
2010,10,15,01,17,6.70
2010,10,15,01,18,6.70
2010,10,15,01,19,6.70
2010,10,15,01,20,6.70
2010,10,15,01,21,6.60
2010,10,15,01,22,6.60
2010,10,15,01,23,6.60
2010,10,15,01,24,6.60
2010,10,15,01,25,6.60
2010,10,15,01,26,6.50
2010,10,15,01,27,6.50
2010,10,15,01,28,6.50
2010,10,15,01,29,6.50
2010,10,15,01,30,6.50
2010,10,15,01,31,6.40
2010,10,15,01,32,6.40
2010,10,15,01,33,6.40
2010,10,15,01,34,6.40
2010,10,15,01,35,6.40
2010,10,15,01,36,6.40
2010,10,15,01,37,6.30
2010,10,15,01,38,6.30
2010,10,15,01,39,6.30
2010,10,15,01,40,6.30
2010,10,15,01,41,6.30
2010,10,15,01,42,6.30
2010,10,15,01,43,6.30
2010,10,15,01,44,6.30
2010,10,15,01,45,6.30
2010,10,15,01,46,6.20
2010,10,15,01,47,6.20
2010,10,15,01,48,6.20
2010,10,15,01,49,6.20
2010,10,15,01,50,6.20
2010,10,15,01,51,6.20
2010,10,15,01,52,6.20
2010,10,15,01,53,6.10
2010,10,15,01,54,6.10
2010,10,15,01,55,6.10
2010,10,15,01,56,6.10
2010,10,15,01,57,6.10
2010,10,15,01,58,6.10
2010,10,15,01,59,6.10
2010,10,15,02,00,6.10
2010,10,15,02,01,6.10
2010,10,15,02,02,6.10
2010,10,15,02,03,6.00
2010,10,15,02,04,6.00
2010,10,15,02,05,6.00
2010,10,15,02,06,6.00
2010,10,15,02,07,6.00
2010,10,15,02,08,6.00
2010,10,15,02,09,5.90
2010,10,15,02,10,5.90
2010,10,15,02,11,5.90
2010,10,15,02,12,5.90
2010,10,15,02,13,5.90
2010,10,15,02,14,5.90
2010,10,15,02,15,5.90
2010,10,15,02,16,5.90
2010,10,15,02,17,5.80
2010,10,15,02,18,5.80
2010,10,15,02,19,5.80
2010,10,15,02,20,5.80
2010,10,15,02,21,5.80
2010,10,15,02,22,5.80
2010,10,15,02,23,5.80
2010,10,15,02,24,5.80
2010,10,15,02,25,5.80
2010,10,15,02,26,5.80
2010,10,15,02,27,5.80
2010,10,15,02,28,5.80
2010,10,15,02,29,5.80
2010,10,15,02,30,5.80
2010,10,15,02,31,5.80
2010,10,15,02,32,5.80
2010,10,15,02,33,5.80
2010,10,15,02,34,5.80
2010,10,15,02,35,5.80
2010,10,15,02,36,5.80
2010,10,15,02,37,5.80
2010,10,15,02,38,5.80
2010,10,15,02,39,5.70
2010,10,15,02,40,5.70
2010,10,15,02,41,5.70
2010,10,15,02,42,5.70
2010,10,15,02,43,5.70
2010,10,15,02,44,5.70
2010,10,15,02,45,5.70
2010,10,15,02,46,5.70
2010,10,15,02,47,5.70
2010,10,15,02,48,5.70
2010,10,15,02,49,5.70
2010,10,15,02,50,5.70
2010,10,15,02,51,5.70
2010,10,15,02,52,5.70
2010,10,15,02,53,5.80
2010,10,15,02,54,5.80
2010,10,15,02,55,5.80
2010,10,15,02,56,5.80
2010,10,15,02,57,5.80
2010,10,15,02,58,5.80
2010,10,15,02,59,5.80
2010,10,15,03,00,5.80
2010,10,15,03,01,5.80
2010,10,15,03,02,5.80
2010,10,15,03,03,5.80
2010,10,15,03,04,5.80
2010,10,15,03,05,5.80
2010,10,15,03,06,5.80
2010,10,15,03,07,5.80
2010,10,15,03,08,5.80
2010,10,15,03,09,5.80
2010,10,15,03,10,5.80
2010,10,15,03,11,5.80
2010,10,15,03,12,5.80
2010,10,15,03,13,5.80
2010,10,15,03,14,5.80
2010,10,15,03,15,5.80
2010,10,15,03,16,5.80
2010,10,15,03,17,5.70
2010,10,15,03,18,5.70
2010,10,15,03,19,5.70
2010,10,15,03,20,5.70
2010,10,15,03,21,5.70
2010,10,15,03,22,5.70
2010,10,15,03,23,5.70
2010,10,15,03,24,5.70
2010,10,15,03,25,5.70
2010,10,15,03,26,5.70
2010,10,15,03,27,5.70
2010,10,15,03,28,5.70
2010,10,15,03,29,5.70
2010,10,15,03,30,5.70
2010,10,15,03,31,5.70
2010,10,15,03,32,5.70
2010,10,15,03,33,5.70
2010,10,15,03,34,5.70
2010,10,15,03,35,5.60
2010,10,15,03,36,5.60
2010,10,15,03,37,5.60
2010,10,15,03,38,5.60
2010,10,15,03,39,5.60
2010,10,15,03,40,5.70
2010,10,15,03,41,5.70
2010,10,15,03,42,5.70
2010,10,15,03,43,5.70
2010,10,15,03,44,5.70
2010,10,15,03,45,5.70
2010,10,15,03,46,5.70
2010,10,15,03,47,5.70
2010,10,15,03,48,5.80
2010,10,15,03,49,5.80
2010,10,15,03,50,5.80
2010,10,15,03,51,5.80
2010,10,15,03,52,5.80
2010,10,15,03,53,5.80
2010,10,15,03,54,5.80
2010,10,15,03,55,5.80
2010,10,15,03,56,5.70
2010,10,15,03,57,5.70
2010,10,15,03,58,5.70
2010,10,15,03,59,5.70
2010,10,15,04,00,5.70
2010,10,15,04,01,5.60
2010,10,15,04,02,5.60
2010,10,15,04,03,5.60
2010,10,15,04,04,5.60
2010,10,15,04,05,5.70
2010,10,15,04,06,5.70
2010,10,15,04,07,5.70
2010,10,15,04,08,5.70
2010,10,15,04,09,5.70
2010,10,15,04,10,5.60
2010,10,15,04,11,5.60
2010,10,15,04,12,5.60
2010,10,15,04,13,5.60
2010,10,15,04,14,5.50
2010,10,15,04,15,5.50
2010,10,15,04,16,5.50
2010,10,15,04,17,5.40
2010,10,15,04,18,5.40
2010,10,15,04,19,5.40
2010,10,15,04,20,5.40
2010,10,15,04,21,5.40
2010,10,15,04,22,5.40
2010,10,15,04,23,5.40
2010,10,15,04,24,5.30
2010,10,15,04,25,5.30
2010,10,15,04,26,5.30
2010,10,15,04,27,5.30
2010,10,15,04,28,5.30
2010,10,15,04,29,5.30
2010,10,15,04,30,5.30
2010,10,15,04,31,5.30
2010,10,15,04,32,5.30
2010,10,15,04,33,5.30
2010,10,15,04,34,5.30
2010,10,15,04,35,5.30
2010,10,15,04,36,5.30
2010,10,15,04,37,5.30
2010,10,15,04,38,5.30
2010,10,15,04,39,5.30
2010,10,15,04,40,5.30
2010,10,15,04,41,5.30
2010,10,15,04,42,5.20
2010,10,15,04,43,5.20
2010,10,15,04,44,5.20
2010,10,15,04,45,5.20
2010,10,15,04,46,5.20
2010,10,15,04,47,5.20
2010,10,15,04,48,5.20
2010,10,15,04,49,5.20
2010,10,15,04,50,5.20
2010,10,15,04,51,5.20
2010,10,15,04,52,5.20
2010,10,15,04,53,5.30
2010,10,15,04,54,5.30
2010,10,15,04,55,5.30
2010,10,15,04,56,5.30
2010,10,15,04,57,5.30
2010,10,15,04,58,5.30
2010,10,15,04,59,5.30
2010,10,15,05,00,5.30
2010,10,15,05,01,5.30
2010,10,15,05,02,5.30
2010,10,15,05,03,5.30
2010,10,15,05,04,5.30
2010,10,15,05,05,5.30
2010,10,15,05,06,5.30
2010,10,15,05,07,5.30
2010,10,15,05,08,5.30
2010,10,15,05,09,5.20
2010,10,15,05,10,5.20
2010,10,15,05,11,5.20
2010,10,15,05,12,5.20
2010,10,15,05,13,5.20
2010,10,15,05,14,5.20
2010,10,15,05,15,5.20
2010,10,15,05,16,5.20
2010,10,15,05,17,5.30
2010,10,15,05,18,5.30
2010,10,15,05,19,5.30
2010,10,15,05,20,5.30
2010,10,15,05,21,5.30
2010,10,15,05,22,5.30
2010,10,15,05,23,5.20
2010,10,15,05,24,5.20
2010,10,15,05,25,5.20
2010,10,15,05,26,5.20
2010,10,15,05,27,5.20
2010,10,15,05,28,5.20
2010,10,15,05,29,5.20
2010,10,15,05,30,5.20
2010,10,15,05,31,5.30
2010,10,15,05,32,5.30
2010,10,15,05,33,5.30
2010,10,15,05,34,5.20
2010,10,15,05,35,5.20
2010,10,15,05,36,5.20
2010,10,15,05,37,5.20
2010,10,15,05,38,5.20
2010,10,15,05,39,5.20
2010,10,15,05,40,5.20
2010,10,15,05,41,5.20
2010,10,15,05,42,5.20
2010,10,15,05,43,5.20
2010,10,15,05,44,5.20
2010,10,15,05,45,5.20
2010,10,15,05,46,5.20
2010,10,15,05,47,5.20
2010,10,15,05,48,5.30
2010,10,15,05,49,5.30
2010,10,15,05,50,5.30
2010,10,15,05,51,5.30
2010,10,15,05,52,5.30
2010,10,15,05,53,5.30
2010,10,15,05,54,5.30
2010,10,15,05,55,5.20
2010,10,15,05,56,5.20
2010,10,15,05,57,5.20
2010,10,15,05,58,5.20
2010,10,15,05,59,5.20
2010,10,15,06,00,5.20
2010,10,15,06,01,5.20
2010,10,15,06,02,5.20
2010,10,15,06,03,5.20
2010,10,15,06,04,5.20
2010,10,15,06,05,5.20
2010,10,15,06,06,5.20
2010,10,15,06,07,5.20
2010,10,15,06,08,5.10
2010,10,15,06,09,5.10
2010,10,15,06,10,5.10
2010,10,15,06,11,5.10
2010,10,15,06,12,5.00
2010,10,15,06,13,5.00
2010,10,15,06,14,5.00
2010,10,15,06,15,5.00
2010,10,15,06,16,5.00
2010,10,15,06,17,5.00
2010,10,15,06,18,4.90
2010,10,15,06,19,4.90
2010,10,15,06,20,4.90
2010,10,15,06,21,4.90
2010,10,15,06,22,4.80
2010,10,15,06,23,4.80
2010,10,15,06,24,4.70
2010,10,15,06,25,4.60
2010,10,15,06,26,4.60
2010,10,15,06,27,4.50
2010,10,15,06,28,4.50
2010,10,15,06,29,4.40
2010,10,15,06,30,4.40
2010,10,15,06,31,4.30
2010,10,15,06,32,4.30
2010,10,15,06,33,4.30
2010,10,15,06,34,4.30
2010,10,15,06,35,4.20
2010,10,15,06,36,4.20
2010,10,15,06,37,4.20
2010,10,15,06,38,4.20
2010,10,15,06,39,4.20
2010,10,15,06,40,4.20
2010,10,15,06,41,4.20
2010,10,15,06,42,4.20
2010,10,15,06,43,4.20
2010,10,15,06,44,4.20
2010,10,15,06,45,4.10
2010,10,15,06,46,4.10
2010,10,15,06,47,4.10
2010,10,15,06,48,4.10
2010,10,15,06,49,4.10
2010,10,15,06,50,4.10
2010,10,15,06,51,4.10
2010,10,15,06,52,4.00
2010,10,15,06,53,4.10
2010,10,15,06,54,4.10
2010,10,15,06,55,4.10
2010,10,15,06,56,4.10
2010,10,15,06,57,4.10
2010,10,15,06,58,4.10
2010,10,15,06,59,4.10
2010,10,15,07,00,4.10
2010,10,15,07,01,4.10
2010,10,15,07,02,4.10
2010,10,15,07,03,4.10
2010,10,15,07,04,4.10
2010,10,15,07,05,4.10
2010,10,15,07,06,4.10
2010,10,15,07,07,4.10
2010,10,15,07,08,4.10
2010,10,15,07,09,4.10
2010,10,15,07,10,4.10
2010,10,15,07,11,4.10
2010,10,15,07,12,4.10
2010,10,15,07,13,4.10
2010,10,15,07,14,4.00
2010,10,15,07,15,3.90
2010,10,15,07,16,3.90
2010,10,15,07,17,3.80
2010,10,15,07,18,3.80
2010,10,15,07,19,3.80
2010,10,15,07,20,3.80
2010,10,15,07,21,3.70
2010,10,15,07,22,3.70
2010,10,15,07,23,3.70
2010,10,15,07,24,3.70
2010,10,15,07,25,3.70
2010,10,15,07,26,3.70
2010,10,15,07,27,3.70
2010,10,15,07,28,3.80
2010,10,15,07,29,3.80
2010,10,15,07,30,3.80
2010,10,15,07,31,3.80
2010,10,15,07,32,3.80
2010,10,15,07,33,3.80
2010,10,15,07,34,3.80
2010,10,15,07,35,3.80
2010,10,15,07,36,3.80
2010,10,15,07,37,3.80
2010,10,15,07,38,3.90
2010,10,15,07,39,3.90
2010,10,15,07,40,3.90
2010,10,15,07,41,3.90
2010,10,15,07,42,3.90
2010,10,15,07,43,3.90
2010,10,15,07,44,3.90
2010,10,15,07,45,3.90
2010,10,15,07,46,3.90
2010,10,15,07,47,3.90
2010,10,15,07,48,3.90
2010,10,15,07,49,3.90
2010,10,15,07,50,3.90
2010,10,15,07,51,3.90
2010,10,15,07,52,4.00
2010,10,15,07,53,4.00
2010,10,15,07,54,4.00
2010,10,15,07,55,4.00
2010,10,15,07,56,4.00
2010,10,15,07,57,4.00
2010,10,15,07,58,4.00
2010,10,15,07,59,4.00
2010,10,15,08,00,4.10
2010,10,15,08,01,4.10
2010,10,15,08,02,4.10
2010,10,15,08,03,4.10
2010,10,15,08,04,4.10
2010,10,15,08,05,4.10
2010,10,15,08,06,4.10
2010,10,15,08,07,4.10
2010,10,15,08,08,4.10
2010,10,15,08,09,4.10
2010,10,15,08,10,4.10
2010,10,15,08,11,4.10
2010,10,15,08,12,4.10
2010,10,15,08,13,4.00
2010,10,15,08,14,3.90
2010,10,15,08,15,3.90
2010,10,15,08,16,3.80
2010,10,15,08,17,3.80
2010,10,15,08,18,3.80
2010,10,15,08,19,3.80
2010,10,15,08,20,3.90
2010,10,15,08,21,3.90
2010,10,15,08,22,3.90
2010,10,15,08,23,3.90
2010,10,15,08,24,4.00
2010,10,15,08,25,4.00
2010,10,15,08,26,4.10
2010,10,15,08,27,4.10
2010,10,15,08,28,4.10
2010,10,15,08,29,4.20
2010,10,15,08,30,4.20
2010,10,15,08,31,4.20
2010,10,15,08,32,4.20
2010,10,15,08,33,4.20
2010,10,15,08,34,4.20
2010,10,15,08,35,4.20
2010,10,15,08,36,4.20
2010,10,15,08,37,4.30
2010,10,15,08,38,4.30
2010,10,15,08,39,4.30
2010,10,15,08,40,4.40
2010,10,15,08,41,4.40
2010,10,15,08,42,4.40
2010,10,15,08,43,4.50
2010,10,15,08,44,4.50
2010,10,15,08,45,4.50
2010,10,15,08,46,4.60
2010,10,15,08,47,4.60
2010,10,15,08,48,4.70
2010,10,15,08,49,4.70
2010,10,15,08,50,4.80
2010,10,15,08,51,4.80
2010,10,15,08,52,4.80
2010,10,15,08,53,4.90
2010,10,15,08,54,4.90
2010,10,15,08,55,5.00
2010,10,15,08,56,5.10
2010,10,15,08,57,5.10
2010,10,15,08,58,5.20
2010,10,15,08,59,5.30
2010,10,15,09,00,5.30
2010,10,15,09,01,5.40
2010,10,15,09,02,5.50
2010,10,15,09,03,5.50
2010,10,15,09,04,5.60
2010,10,15,09,05,5.70
2010,10,15,09,06,5.80
2010,10,15,09,07,6.00
2010,10,15,09,08,6.10
2010,10,15,09,09,6.20
2010,10,15,09,10,6.30
2010,10,15,09,11,6.40
2010,10,15,09,12,6.50
2010,10,15,09,13,6.60
2010,10,15,09,14,6.70
2010,10,15,09,15,6.80
2010,10,15,09,16,6.80
2010,10,15,09,17,6.90
2010,10,15,09,18,7.00
2010,10,15,09,19,7.10
2010,10,15,09,20,7.20
2010,10,15,09,21,7.20
2010,10,15,09,22,7.30
2010,10,15,09,23,7.40
2010,10,15,09,24,7.60
2010,10,15,09,25,7.70
2010,10,15,09,26,7.80
2010,10,15,09,27,7.90
2010,10,15,09,28,8.10
2010,10,15,09,29,8.20
2010,10,15,09,30,8.30
2010,10,15,09,31,8.40
2010,10,15,09,32,8.40
2010,10,15,09,33,8.50
2010,10,15,09,34,8.60
2010,10,15,09,35,8.60
2010,10,15,09,36,8.70
2010,10,15,09,37,8.70
2010,10,15,09,38,8.80
2010,10,15,09,39,8.90
2010,10,15,09,40,9.00
2010,10,15,09,41,9.10
2010,10,15,09,42,9.20
2010,10,15,09,43,9.20
2010,10,15,09,44,9.30
2010,10,15,09,45,9.40
2010,10,15,09,46,9.50
2010,10,15,09,47,9.60
2010,10,15,09,48,9.70
2010,10,15,09,49,9.80
2010,10,15,09,50,9.90
2010,10,15,09,51,10.00
2010,10,15,09,52,10.10
2010,10,15,09,53,10.20
2010,10,15,09,54,10.20
2010,10,15,09,55,10.20
2010,10,15,09,56,10.10
2010,10,15,09,57,10.10
2010,10,15,09,58,10.10
2010,10,15,09,59,10.10
2010,10,15,10,00,10.10
2010,10,15,10,01,10.00
2010,10,15,10,02,10.00
2010,10,15,10,03,10.10
2010,10,15,10,04,10.10
2010,10,15,10,05,10.10
2010,10,15,10,06,10.10
2010,10,15,10,07,10.10
2010,10,15,10,08,10.10
2010,10,15,10,09,10.20
2010,10,15,10,10,10.20
2010,10,15,10,11,10.20
2010,10,15,10,12,10.20
2010,10,15,10,13,10.20
2010,10,15,10,14,10.20
2010,10,15,10,15,10.30
2010,10,15,10,16,10.30
2010,10,15,10,17,10.30
2010,10,15,10,18,10.40
2010,10,15,10,19,10.40
2010,10,15,10,20,10.50
2010,10,15,10,21,10.50
2010,10,15,10,22,10.60
2010,10,15,10,23,10.60
2010,10,15,10,24,10.60
2010,10,15,10,25,10.70
2010,10,15,10,26,10.70
2010,10,15,10,27,10.70
2010,10,15,10,28,10.80
2010,10,15,10,29,10.90
2010,10,15,10,30,10.90
2010,10,15,10,31,10.90
2010,10,15,10,32,11.00
2010,10,15,10,33,11.10
2010,10,15,10,34,11.10
2010,10,15,10,35,11.10
2010,10,15,10,36,11.20
2010,10,15,10,37,11.20
2010,10,15,10,38,11.20
2010,10,15,10,39,11.20
2010,10,15,10,40,11.20
2010,10,15,10,41,11.20
2010,10,15,10,42,11.30
2010,10,15,10,43,11.30
2010,10,15,10,44,11.40
2010,10,15,10,45,11.40
2010,10,15,10,46,11.40
2010,10,15,10,47,11.30
2010,10,15,10,48,11.30
2010,10,15,10,49,11.30
2010,10,15,10,50,11.20
2010,10,15,10,51,11.20
2010,10,15,10,52,11.20
2010,10,15,10,53,11.20
2010,10,15,10,54,11.20
2010,10,15,10,55,11.20
2010,10,15,10,56,11.20
2010,10,15,10,57,11.20
2010,10,15,10,58,11.20
2010,10,15,10,59,11.20
2010,10,15,11,00,11.20
2010,10,15,11,01,11.30
2010,10,15,11,02,11.30
2010,10,15,11,03,11.30
2010,10,15,11,04,11.30
2010,10,15,11,05,11.40
2010,10,15,11,06,11.30
2010,10,15,11,07,11.40
2010,10,15,11,08,11.40
2010,10,15,11,09,11.40
2010,10,15,11,10,11.40
2010,10,15,11,11,11.40
2010,10,15,11,12,11.40
2010,10,15,11,13,11.30
2010,10,15,11,14,11.30
2010,10,15,11,15,11.20
2010,10,15,11,16,11.10
2010,10,15,11,17,11.10
2010,10,15,11,18,11.10
2010,10,15,11,19,11.10
2010,10,15,11,20,11.10
2010,10,15,11,21,11.20
2010,10,15,11,22,11.30
2010,10,15,11,23,11.40
2010,10,15,11,24,11.50
2010,10,15,11,25,11.50
2010,10,15,11,26,11.60
2010,10,15,11,27,11.60
2010,10,15,11,28,11.60
2010,10,15,11,29,11.60
2010,10,15,11,30,11.50
2010,10,15,11,31,11.40
2010,10,15,11,32,11.30
2010,10,15,11,33,11.20
2010,10,15,11,34,11.20
2010,10,15,11,35,11.20
2010,10,15,11,36,11.20
2010,10,15,11,37,11.20
2010,10,15,11,38,11.30
2010,10,15,11,39,11.30
2010,10,15,11,40,11.40
2010,10,15,11,41,11.40
2010,10,15,11,42,11.50
2010,10,15,11,43,11.50
2010,10,15,11,44,11.50
2010,10,15,11,45,11.60
2010,10,15,11,46,11.60
2010,10,15,11,47,11.60
2010,10,15,11,48,11.60
2010,10,15,11,49,11.60
2010,10,15,11,50,11.60
2010,10,15,11,51,11.70
2010,10,15,11,52,11.80
2010,10,15,11,53,11.80
2010,10,15,11,54,11.90
2010,10,15,11,55,12.00
2010,10,15,11,56,12.10
2010,10,15,11,57,12.20
2010,10,15,11,58,12.30
2010,10,15,11,59,12.30
2010,10,15,12,00,12.30
2010,10,15,12,01,12.20
2010,10,15,12,02,12.20
2010,10,15,12,03,12.20
2010,10,15,12,04,12.10
2010,10,15,12,05,12.10
2010,10,15,12,06,12.10
2010,10,15,12,07,12.10
2010,10,15,12,08,12.10
2010,10,15,12,09,12.10
2010,10,15,12,10,12.20
2010,10,15,12,11,12.20
2010,10,15,12,12,12.20
2010,10,15,12,13,12.20
2010,10,15,12,14,12.20
2010,10,15,12,15,12.20
2010,10,15,12,16,12.30
2010,10,15,12,17,12.30
2010,10,15,12,18,12.40
2010,10,15,12,19,12.40
2010,10,15,12,20,12.50
2010,10,15,12,21,12.50
2010,10,15,12,22,12.40
2010,10,15,12,23,12.30
2010,10,15,12,24,12.20
2010,10,15,12,25,12.10
2010,10,15,12,26,12.00
2010,10,15,12,27,12.00
2010,10,15,12,28,12.00
2010,10,15,12,29,12.00
2010,10,15,12,30,12.00
2010,10,15,12,31,11.90
2010,10,15,12,32,11.90
2010,10,15,12,33,11.90
2010,10,15,12,34,11.90
2010,10,15,12,35,12.00
2010,10,15,12,36,12.00
2010,10,15,12,37,12.10
2010,10,15,12,38,12.20
2010,10,15,12,39,12.30
2010,10,15,12,40,12.40
2010,10,15,12,41,12.50
2010,10,15,12,42,12.60
2010,10,15,12,43,12.60
2010,10,15,12,44,12.60
2010,10,15,12,45,12.60
2010,10,15,12,46,12.50
2010,10,15,12,47,12.50
2010,10,15,12,48,12.40
2010,10,15,12,49,12.30
2010,10,15,12,50,12.30
2010,10,15,12,51,12.20
2010,10,15,12,52,12.10
2010,10,15,12,53,12.00
2010,10,15,12,54,11.90
2010,10,15,12,55,11.90
2010,10,15,12,56,11.80
2010,10,15,12,57,11.80
2010,10,15,12,58,11.80
2010,10,15,12,59,11.90
2010,10,15,13,00,11.90
2010,10,15,13,01,11.90
2010,10,15,13,02,11.80
2010,10,15,13,03,11.80
2010,10,15,13,04,11.80
2010,10,15,13,05,11.80
2010,10,15,13,06,11.80
2010,10,15,13,07,11.80
2010,10,15,13,08,11.80
2010,10,15,13,09,11.80
2010,10,15,13,10,11.80
2010,10,15,13,11,11.80
2010,10,15,13,12,11.90
2010,10,15,13,13,11.90
2010,10,15,13,14,11.90
2010,10,15,13,15,12.00
2010,10,15,13,16,12.00
2010,10,15,13,17,12.00
2010,10,15,13,18,11.90
2010,10,15,13,19,11.80
2010,10,15,13,20,11.80
2010,10,15,13,21,11.70
2010,10,15,13,22,11.70
2010,10,15,13,23,11.70
2010,10,15,13,24,11.60
2010,10,15,13,25,11.60
2010,10,15,13,26,11.60
2010,10,15,13,27,11.70
2010,10,15,13,28,11.70
2010,10,15,13,29,11.70
2010,10,15,13,30,11.70
2010,10,15,13,31,11.70
2010,10,15,13,32,11.70
2010,10,15,13,33,11.70
2010,10,15,13,34,11.60
2010,10,15,13,35,11.60
2010,10,15,13,36,11.60
2010,10,15,13,37,11.60
2010,10,15,13,38,11.60
2010,10,15,13,39,11.60
2010,10,15,13,40,11.60
2010,10,15,13,41,11.60
2010,10,15,13,42,11.50
2010,10,15,13,43,11.50
2010,10,15,13,44,11.50
2010,10,15,13,45,11.50
2010,10,15,13,46,11.50
2010,10,15,13,47,11.50
2010,10,15,13,48,11.40
2010,10,15,13,49,11.40
2010,10,15,13,50,11.40
2010,10,15,13,51,11.40
2010,10,15,13,52,11.40
2010,10,15,13,53,11.40
2010,10,15,13,54,11.40
2010,10,15,13,55,11.40
2010,10,15,13,56,11.40
2010,10,15,13,57,11.40
2010,10,15,13,58,11.30
2010,10,15,13,59,11.30
2010,10,15,14,00,11.20
2010,10,15,14,01,11.20
2010,10,15,14,02,11.20
2010,10,15,14,03,11.20
2010,10,15,14,04,11.20
2010,10,15,14,05,11.20
2010,10,15,14,06,11.20
2010,10,15,14,07,11.20
2010,10,15,14,08,11.20
2010,10,15,14,09,11.20
2010,10,15,14,10,11.20
2010,10,15,14,11,11.20
2010,10,15,14,12,11.20
2010,10,15,14,13,11.30
2010,10,15,14,14,11.30
2010,10,15,14,15,11.30
2010,10,15,14,16,11.30
2010,10,15,14,17,11.30
2010,10,15,14,18,11.30
2010,10,15,14,19,11.30
2010,10,15,14,20,11.40
2010,10,15,14,21,11.40
2010,10,15,14,22,11.40
2010,10,15,14,23,11.40
2010,10,15,14,24,11.40
2010,10,15,14,25,11.40
2010,10,15,14,26,11.40
2010,10,15,14,27,11.40
2010,10,15,14,28,11.50
2010,10,15,14,29,11.50
2010,10,15,14,30,11.50
2010,10,15,14,31,11.50
2010,10,15,14,32,11.50
2010,10,15,14,33,11.50
2010,10,15,14,34,11.60
2010,10,15,14,35,11.60
2010,10,15,14,36,11.60
2010,10,15,14,37,11.70
2010,10,15,14,38,11.70
2010,10,15,14,39,11.70
2010,10,15,14,40,11.60
2010,10,15,14,41,11.70
2010,10,15,14,42,11.70
2010,10,15,14,43,11.70
2010,10,15,14,44,11.70
2010,10,15,14,45,11.70
2010,10,15,14,46,11.70
2010,10,15,14,47,11.70
2010,10,15,14,48,11.70
2010,10,15,14,49,11.70
2010,10,15,14,50,11.70
2010,10,15,14,51,11.70
2010,10,15,14,52,11.70
2010,10,15,14,53,11.70
2010,10,15,14,54,11.70
2010,10,15,14,55,11.80
2010,10,15,14,56,11.80
2010,10,15,14,57,11.80
2010,10,15,14,58,11.70
2010,10,15,14,59,11.70
2010,10,15,15,00,11.70
2010,10,15,15,01,11.60
2010,10,15,15,02,11.60
2010,10,15,15,03,11.50
2010,10,15,15,04,11.50
2010,10,15,15,05,11.40
2010,10,15,15,06,11.40
2010,10,15,15,07,11.30
2010,10,15,15,08,11.30
2010,10,15,15,09,11.30
2010,10,15,15,10,11.30
2010,10,15,15,11,11.30
2010,10,15,15,12,11.30
2010,10,15,15,13,11.30
2010,10,15,15,14,11.20
2010,10,15,15,15,11.20
2010,10,15,15,16,11.20
2010,10,15,15,17,11.30
2010,10,15,15,18,11.30
2010,10,15,15,19,11.30
2010,10,15,15,20,11.30
2010,10,15,15,21,11.30
2010,10,15,15,22,11.30
2010,10,15,15,23,11.40
2010,10,15,15,24,11.40
2010,10,15,15,25,11.40
2010,10,15,15,26,11.40
2010,10,15,15,27,11.40
2010,10,15,15,28,11.40
2010,10,15,15,29,11.40
2010,10,15,15,30,11.40
2010,10,15,15,31,11.40
2010,10,15,15,32,11.40
2010,10,15,15,33,11.30
2010,10,15,15,34,11.30
2010,10,15,15,35,11.30
2010,10,15,15,36,11.30
2010,10,15,15,37,11.20
2010,10,15,15,38,11.20
2010,10,15,15,39,11.10
2010,10,15,15,40,11.10
2010,10,15,15,41,11.10
2010,10,15,15,42,11.10
2010,10,15,15,43,11.10
2010,10,15,15,44,11.00
2010,10,15,15,45,11.00
2010,10,15,15,46,11.00
2010,10,15,15,47,11.00
2010,10,15,15,48,10.90
2010,10,15,15,49,10.90
2010,10,15,15,50,10.90
2010,10,15,15,51,10.90
2010,10,15,15,52,10.90
2010,10,15,15,53,10.90
2010,10,15,15,54,10.90
2010,10,15,15,55,11.00
2010,10,15,15,56,10.90
2010,10,15,15,57,10.90
2010,10,15,15,58,10.90
2010,10,15,15,59,10.90
2010,10,15,16,00,10.90
2010,10,15,16,01,10.90
2010,10,15,16,02,10.80
2010,10,15,16,03,10.80
2010,10,15,16,04,10.80
2010,10,15,16,05,10.80
2010,10,15,16,06,10.80
2010,10,15,16,07,10.80
2010,10,15,16,08,10.80
2010,10,15,16,09,10.80
2010,10,15,16,10,10.80
2010,10,15,16,11,10.80
2010,10,15,16,12,10.80
2010,10,15,16,13,10.80
2010,10,15,16,14,10.80
2010,10,15,16,15,10.80
2010,10,15,16,16,10.80
2010,10,15,16,17,10.80
2010,10,15,16,18,10.70
2010,10,15,16,19,10.70
2010,10,15,16,20,10.70
2010,10,15,16,21,10.70
2010,10,15,16,22,10.70
2010,10,15,16,23,10.70
2010,10,15,16,24,10.70
2010,10,15,16,25,10.70
2010,10,15,16,26,10.70
2010,10,15,16,27,10.70
2010,10,15,16,28,10.70
2010,10,15,16,29,10.70
2010,10,15,16,30,10.70
2010,10,15,16,31,10.70
2010,10,15,16,32,10.70
2010,10,15,16,33,10.70
2010,10,15,16,34,10.70
2010,10,15,16,35,10.70
2010,10,15,16,36,10.70
2010,10,15,16,37,10.70
2010,10,15,16,38,10.70
2010,10,15,16,39,10.80
2010,10,15,16,40,10.80
2010,10,15,16,41,10.80
2010,10,15,16,42,10.80
2010,10,15,16,43,10.80
2010,10,15,16,44,10.80
2010,10,15,16,45,10.80
2010,10,15,16,46,10.80
2010,10,15,16,47,10.80
2010,10,15,16,48,10.80
2010,10,15,16,49,10.80
2010,10,15,16,50,10.80
2010,10,15,16,51,10.80
2010,10,15,16,52,10.80
2010,10,15,16,53,10.80
2010,10,15,16,54,10.80
2010,10,15,16,55,10.80
2010,10,15,16,56,10.80
2010,10,15,16,57,10.80
2010,10,15,16,58,10.80
2010,10,15,16,59,10.80
2010,10,15,17,00,10.80
2010,10,15,17,01,10.70
2010,10,15,17,02,10.70
2010,10,15,17,03,10.70
2010,10,15,17,04,10.70
2010,10,15,17,05,10.70
2010,10,15,17,06,10.70
2010,10,15,17,07,10.60
2010,10,15,17,08,10.60
2010,10,15,17,09,10.60
2010,10,15,17,10,10.60
2010,10,15,17,11,10.60
2010,10,15,17,12,10.50
2010,10,15,17,13,10.50
2010,10,15,17,14,10.40
2010,10,15,17,15,10.40
2010,10,15,17,16,10.30
2010,10,15,17,17,10.30
2010,10,15,17,18,10.20
2010,10,15,17,19,10.20
2010,10,15,17,20,10.10
2010,10,15,17,21,10.00
2010,10,15,17,22,10.00
2010,10,15,17,23,9.90
2010,10,15,17,24,9.80
2010,10,15,17,25,9.80
2010,10,15,17,26,9.70
2010,10,15,17,27,9.60
2010,10,15,17,28,9.60
2010,10,15,17,29,9.50
2010,10,15,17,30,9.50
2010,10,15,17,31,9.40
2010,10,15,17,32,9.40
2010,10,15,17,33,9.30
2010,10,15,17,34,9.30
2010,10,15,17,35,9.20
2010,10,15,17,36,9.20
2010,10,15,17,37,9.10
2010,10,15,17,38,9.10
2010,10,15,17,39,9.00
2010,10,15,17,40,9.00
2010,10,15,17,41,8.90
2010,10,15,17,42,8.90
2010,10,15,17,43,8.80
2010,10,15,17,44,8.80
2010,10,15,17,45,8.80
2010,10,15,17,46,8.70